Location: ???????
(55.4362°N, 38.1183°E)
Time: 14:40:28
(UTC+00:00)

Cosmos 2219 Rocket - Visible Passes

Search period start: 21 October 2021 00:00
Search period end: 31 October 2021 00:00
Orbit: 828 x 846 km, 71.0° (Epoch: 20 October)

Date Brightness Start Highest point End Pass type
(mag) Time Alt. Az. Time Alt. Az. Time Alt. Az.
21 Oct 4.1 00:41:09 10° NNW 00:45:51 27° NNE 00:50:36 10° E visible
21 Oct 2.3 02:25:01 10° NNW 02:30:42 77° NE 02:36:23 10° SE visible
21 Oct 4.6 22:43:39 17° N 22:43:39 17° N 22:46:57 10° NE visible
22 Oct 4.1 00:25:22 13° NNW 00:29:22 26° NNE 00:34:04 10° E visible
22 Oct 2.4 02:08:36 10° NNW 02:14:16 73° NE 02:19:57 10° SE visible
22 Oct 4.7 22:27:57 16° NNE 22:27:57 16° NNE 22:30:26 10° NE visible
23 Oct 4.1 00:09:42 16° NNW 00:12:53 25° NNE 00:17:31 10° E visible
23 Oct 2.4 01:52:11 10° NNW 01:57:51 70° NE 02:03:30 10° SE visible
23 Oct 3.1 03:36:37 10° NW 03:41:25 29° WSW 03:46:12 10° SSW visible
23 Oct 4.9 22:12:23 14° NNE 22:12:23 14° NNE 22:13:55 10° NE visible
23 Oct 4.2 23:54:08 19° N 23:56:24 24° NNE 00:00:59 10° E visible
24 Oct 2.5 01:35:53 11° NNW 01:41:25 66° NE 01:47:04 10° SE visible
24 Oct 3.0 03:20:09 10° NW 03:25:02 31° WSW 03:29:56 10° SSW visible
24 Oct 5.0 21:56:58 11° NE 21:56:58 11° NE 21:57:25 10° NE visible
24 Oct 4.2 23:38:44 22° N 23:39:56 24° NNE 23:44:26 10° E visible
25 Oct 2.6 01:20:30 16° NNW 01:24:59 63° NE 01:30:37 10° SE visible
25 Oct 2.9 03:03:41 10° NW 03:08:40 33° WSW 03:13:38 10° S visible
25 Oct 3.9 16:18:09 10° SSE 16:19:32 16° SSE 16:19:32 16° SSE visible
25 Oct 4.5 18:00:49 10° SW 18:01:22 13° SW 18:01:22 13° SW visible
25 Oct 4.2 23:23:32 23° NNE 23:23:32 23° NNE 23:27:54 10° ENE visible
26 Oct 2.6 01:05:19 25° NNW 01:08:33 60° NE 01:14:09 10° SE visible
26 Oct 2.8 02:47:13 10° NW 02:52:17 35° WSW 02:57:21 10° S visible
26 Oct 3.3 16:01:54 10° SSE 16:05:02 24° SE 16:05:02 24° SE visible
26 Oct 3.7 17:44:22 10° SW 17:46:51 27° SW 17:46:51 27° SW visible
26 Oct 4.5 23:08:33 20° NE 23:08:33 20° NE 23:11:21 10° ENE visible
27 Oct 2.7 00:50:21 40° N 00:52:07 57° NE 00:57:42 10° SE visible
27 Oct 2.7 02:32:09 17° NW 02:35:55 37° WSW 02:41:03 10° S visible
27 Oct 3.1 15:45:38 10° SSE 15:50:07 25° ESE 15:50:20 25° E visible
27 Oct 2.7 17:27:56 10° SW 17:32:08 52° SW 17:32:08 52° SW visible
27 Oct 4.9 19:13:41 10° W 19:13:56 11° W 19:13:56 11° W visible
27 Oct 4.8 22:53:48 14° ENE 22:53:48 14° ENE 22:54:48 10° ENE visible
28 Oct 2.8 00:35:37 54° NE 00:35:40 54° NE 00:41:14 10° SE visible
28 Oct 2.6 02:17:26 29° WNW 02:19:32 39° WSW 02:24:44 10° S visible
28 Oct 3.2 15:29:24 10° SSE 15:33:45 24° ESE 15:35:25 21° ENE visible
28 Oct 2.1 17:11:31 10° SW 17:17:07 81° NW 17:17:12 81° NW visible
28 Oct 4.5 18:57:09 10° W 18:58:58 18° WNW 18:58:58 18° WNW visible
29 Oct 3.4 00:21:06 37° E 00:21:06 37° E 00:24:46 10° ESE visible
29 Oct 2.5 02:02:55 41° WSW 02:03:09 41° WSW 02:08:25 10° S visible
29 Oct 3.3 15:13:10 10° SSE 15:17:24 22° ESE 15:20:15 15° ENE visible
29 Oct 2.1 16:55:05 10° SW 17:00:42 86° NW 17:02:01 55° NNE visible
29 Oct 4.2 18:40:38 10° W 18:43:47 24° WNW 18:43:47 24° WNW visible
30 Oct 4.3 00:06:43 19° ESE 00:06:43 19° ESE 00:08:18 10° ESE visible
30 Oct 3.0 01:48:33 34° SSW 01:48:33 34° SSW 01:52:06 10° S visible
30 Oct 3.4 14:56:57 10° SSE 15:01:02 21° ESE 15:04:54 11° ENE visible
30 Oct 2.1 16:38:40 10° SSW 16:44:17 90° NW 16:46:39 37° NNE visible
30 Oct 3.9 18:24:06 10° W 18:28:24 29° NW 18:28:24 29° NW visible
